PST,Max TemperatureF,Mean TemperatureF,Min TemperatureF,Max Dew PointF,MeanDew PointF,Min DewpointF,Max Humidity, Mean Humidity, Min Humidity, Max Sea Level PressureIn, Mean Sea Level PressureIn, Min Sea Level PressureIn, Max VisibilityMiles, Mean VisibilityMiles, Min VisibilityMiles, Max Wind SpeedMPH, Mean Wind SpeedMPH, Max Gust SpeedMPH,PrecipitationIn, CloudCover, Events, WindDirDegrees
2012-11-1,59,49,39,46,44,37,100,85,51,30.10,30.03,29.96,10,7,0,5,1,,0.00,,,206
2012-11-2,57,48,39,48,43,39,100,86,67,30.13,30.10,30.06,10,9,0,5,1,,0.00,,,295
2012-11-3,68,57,46,50,47,45,100,81,46,30.26,30.18,30.11,10,10,3,8,1,16,0.00,,,216
2012-11-4,68,55,42,54,47,41,100,87,52,30.37,30.32,30.26,10,8,0,4,1,,0.00,,,7
2012-11-5,68,56,44,54,46,41,100,87,49,30.36,30.27,30.18,10,5,0,5,1,,0.00,,,20
2012-11-6,71,56,42,54,46,41,100,84,43,30.22,30.15,30.08,10,6,0,5,0,,0.00,,,13
2012-11-7,66,54,42,48,41,32,100,69,32,30.12,29.99,29.88,10,8,0,10,2,20,0.00,,,199
2012-11-8,44,38,32,36,31,27,93,73,53,29.88,29.81,29.76,10,10,5,14,6,22,0.02,,,206
2012-11-9,44,36,28,32,29,27,100,78,53,29.91,29.87,29.82,10,10,2,12,1,,0.00,,,194
2012-11-10,46,36,26,30,26,25,100,74,43,30.25,30.06,29.91,10,10,7,14,4,21,0.00,,,262
2012-11-11,46,34,23,32,26,21,93,77,46,30.38,30.33,30.26,10,10,7,5,0,,0.00,,,239
2012-11-12,48,40,33,41,35,30,100,81,54,30.39,30.34,30.30,10,9,3,5,0,,0.00,,,279
2012-11-13,48,44,41,46,43,39,100,94,87,30.30,30.22,30.17,10,5,0,5,0,,0.08,,,217
2012-11-14,51,48,44,45,43,41,93,88,76,30.22,30.18,30.14,10,5,2,5,1,,0.00,,,18
2012-11-15,50,44,37,43,40,36,100,85,71,30.14,30.06,30.00,10,9,1,7,1,,0.00,,,21
2012-11-16,50,44,37,46,42,37,100,93,76,30.02,29.98,29.90,10,4,0,6,0,,0.02,,,46
2012-11-17,51,42,32,50,42,32,100,93,81,29.98,29.84,29.73,10,6,0,13,2,18,0.66,8,,190
2012-11-18,41,36,32,39,36,32,100,92,87,30.14,30.06,29.99,10,8,3,6,1,,0.06,,,45
2012-11-19,48,44,41,46,43,39,100,94,87,30.16,30.11,30.07,10,4,2,9,1,,0.67,,,29
2012-11-20,50,48,46,48,47,45,100,96,87,30.06,29.93,29.88,10,4,1,7,2,,1.08,,,12
2012-11-21,50,41,32,45,37,30,100,81,54,30.29,30.11,29.90,10,9,3,13,4,23,0.22,,,211
2012-11-22,48,40,32,39,34,32,100,87,54,30.34,30.31,30.27,10,8,0,5,0,,0.00,,,280
2012-11-23,50,41,32,41,35,32,100,91,66,30.38,30.32,30.26,10,4,0,4,0,,0.00,,,243
2012-11-24,48,42,35,41,37,34,100,92,76,30.31,30.22,30.11,10,5,0,4,0,,0.00,,,215
2012-11-25,48,42,37,45,40,36,100,94,81,30.12,30.07,30.00,10,5,0,5,0,,0.00,,,230
2012-11-26,53,44,35,46,39,36,100,93,72,30.12,30.07,30.03,10,5,0,6,0,,0.00,,,12
2012-11-27,57,46,35,48,38,34,100,80,51,30.11,30.05,29.98,10,6,0,14,2,20,0.00,,,43
2012-11-28,51,46,42,46,43,39,100,85,62,29.98,29.89,29.82,10,6,1,9,4,21,0.52,,,48
2012-11-29,48,46,44,46,45,43,100,96,87,29.96,29.81,29.65,10,4,1,7,3,,2.41,,,28
2012-11-30,55,50,44,48,46,43,100,91,67,29.85,29.75,29.63,10,6,0,9,1,,0.30,,,202